1998-067PN

Last updated on Wed Jul 07 2021 06:08:41 GMT+0000 (Coordinated Universal Time)

1 43638U 98067PN 21187.37318072 .00092401 00000-0 35145-3 0 9991 2 43638 51.6277 145.9582 0003973 63.4937 296.6474 15.86808254157066

Satellite not in orbit